HODOYOSHI-1
1 40299U 14070B 18305.84887337 .00000480 00000-0 23263-4 0 9993
2 40299 97.3696 25.1409 0014453 123.0678 14.9950 15.23083106221430
CHUBUSAT-1
1 40300U 14070C 18305.79992731 .00000609 00000-0 29769-4 0 9995
2 40300 97.3512 20.4871 0020157 136.3508 6.4949 15.21771515221203
QSAT-EOS
1 40301U 14070D 18305.79237793 .00001451 00000-0 60110-4 0 9997
2 40301 97.3485 22.3655 0027393 124.8844 349.7929 15.25197296221391
FIREBIRD FU3
1 40377U 15003B 18305.79978937 .00001160 00000-0 50550-4 0 9993
2 40377 99.0840 234.8264 0130547 132.4078 228.8285 15.17761645207194
FIREBIRD FU4
1 40378U 15003C 18305.78788651 .00001176 00000-0 51163-4 0 9993
2 40378 99.0843 234.8767 0130764 132.3349 228.9045 15.17769082207195
GRIFEX
1 40379U 15003D 18305.76148629 .00000766 00000-0 37374-4 0 9999
2 40379 99.0843 230.2730 0137851 147.1165 213.8734 15.14736601206926
NO-84
1 40654U 15025D 18305.10793775 .00009244 00000-0 14094-3 0 04454
2 40654 054.9873 136.7674 0154175 098.3882 263.4659 15.42912671076963
NO-83
1 40655U 15025E 18305.31541131 .00029555 00000-0 25449-3 0 05257
2 40655 054.9733 061.5233 0094010 141.8694 218.9061 15.63438230077680
DEORBITSAIL
1 40719U 15032E 18305.21339850 .00000328 00000-0 54257-4 0 9990
2 40719 97.9283 196.3817 0016008 331.0105 29.0214 14.76550945178396
NUDT-PHONESAT
1 40900U 15049B 18305.83758484 .00001609 00000-0 73773-4 0 9993
2 40900 97.4418 312.5534 0011482 267.8327 215.1998 15.21867175172842
XW-2A
1 40903U 15049E 18305.74858090 .00001388 00000-0 35689-4 0 9998
2 40903 97.3697 341.9053 0012208 252.9676 199.8373 15.41005512174987
XW-2C
1 40906U 15049H 18305.74952439 .00000414 00000-0 25415-4 0 9998
2 40906 97.4637 306.7640 0013299 274.2981 139.7941 15.15373948172325
XW-2D
1 40907U 15049J 18305.76545317 .00000375 00000-0 23273-4 0 9990
2 40907 97.4612 306.4636 0012642 271.3905 206.8234 15.15538219172332
LILACSAT-2
1 40908U 15049K 18305.86993576 .00000553 00000-0 34342-4 0 9993
2 40908 97.4729 305.7406 0014376 275.7586 168.6700 15.13624259172193
XW-2E
1 40909U 15049L 18305.70438903 .00000654 00000-0 36147-4 0 9992
2 40909 97.4590 308.6888 0012140 269.3545 179.4333 15.17304318172464
XW-2F
1 40910U 15049M 18305.86595302 .00000946 00000-0 51450-4 0 9996
2 40910 97.4612 308.1273 0013164 265.4348 213.8912 15.16823808172329
XW-2B
1 40911U 15049N 18305.78947080 .00000430 00000-0 26188-4 0 9990
2 40911 97.4646 307.0729 0012463 271.9757 212.9380 15.15478092172237
DCBB
1 40912U 15049P 18305.77311186 .00000781 00000-0 40460-4 0 9990
2 40912 97.4518 311.1917 0013578 249.4630 196.9546 15.19075121172559
TW-1C
1 40926U 15051B 18305.90581223 .00007202 00000-0 12411-3 0 9993
2 40926 97.1700 347.6856 0011346 130.7200 355.1610 15.51287164174647
TW-1A
1 40928U 15051D 18305.78296762 .00001993 00000-0 52888-4 0 9996
2 40928 97.1729 337.0117 0011618 174.2357 275.9678 15.39412974173941
IO-86
1 40931U 15052B 18305.51119754 .00000532 00000-0 -14964-4 0 9999
2 40931 6.0029 250.8617 0012134 153.5558 206.5710 14.76587412167334
LQSat
1 40958U 15057A 18305.85485673 .00000001 00000-0 79496-5 0 9998
2 40958 97.9275 15.8753 0016862 255.0364 104.8967 14.73054050165112
AO-85
1 40967U 15058D 18305.15435822 -.00000028 00000-0 15616-4 0 04924
2 40967 064.7744 135.4087 0213778 272.5034 085.1615 14.75806518073864
ATHENOXAT-1
1 41168U 15077C 18305.68795008 .00001813 00000-0 61794-4 0 9994
2 41168 14.9823 93.7023 0011852 150.1646 309.5548 15.13098284159238
ChubuSat-2
1 41338U 16012B 18305.66044738 .00000281 00000-0 15215-4 0 9993
2 41338 31.0020 160.1743 0013812 353.9182 6.1284 15.00047744148494
ChubuSat-3
1 41339U 16012C 18305.72379575 .00000335 00000-0 19374-4 0 9991
2 41339 31.0126 158.1758 0013620 2.1646 357.9049 15.00231012148499
Horyu-4
1 41340U 16012D 18305.63913438 .00000407 00000-0 24333-4 0 9996
2 41340 31.0039 152.2332 0013962 15.6893 344.4173 15.01093739148569
OUFTI-1
1 41458U 16025C 18305.74331980 .00001704 00000-0 91288-4 0 9992
2 41458 98.1217 15.8709 0169086 46.6566 314.8599 15.05103542138136
e-st@r-II
1 41459U 16025D 18305.77622365 .00000914 00000-0 51181-4 0 9996
2 41459 98.1230 15.6889 0171109 47.4396 314.1103 15.04802605138115
AAUSAT4
1 41460U 16025E 18305.74939194 .00001490 00000-0 79707-4 0 9990
2 41460 98.1148 16.3985 0160990 42.1971 319.1514 15.06397524138197
LO-87
1 41557U 16033B 18305.81237644 .00000873 00000-0 35616-4 0 9990
2 41557 97.4316 29.5825 0013736 31.0146 329.1901 15.27055571135169
NuSat2
1 41558U 16033C 18305.79692217 .00000912 00000-0 35541-4 0 9990
2 41558 97.4337 29.9014 0013979 35.7195 324.4977 15.28496941135163
Lapan A3
1 41603U 16040E 18305.77167084 .00000168 00000-0 11047-4 0 9994
2 41603 97.3950 4.6699 0015071 116.3358 7.9721 15.19626436130973
Swayam
1 41607U 16040J 18305.42464593 .00001081 00000-0 49382-4 0 9993
2 41607 97.3979 6.4161 0015241 114.6787 245.6038 15.22631100130989
Pratham
1 41783U 16059A 18305.13515851 .00000036 00000-0 16392-4 0 9994
2 41783 98.1018 4.3667 0034100 27.7099 332.5911 14.62952132111989
AlSat 1N
1 41789U 16059G 18305.72873926 .00000088 00000-0 25850-4 0 9991
2 41789 98.1039 6.4572 0028793 17.6040 342.6143 14.64191049112143
ScatSat
1 41790U 16059H 18305.20801276 -.00000003 00000-0 10308-4 0 9995
2 41790 98.2436 350.3947 0018991 34.5033 325.7390 14.50878399111053
TY-1
1 41844U 16066D 18305.87471622 .00001245 00000-0 54803-4 0 9990
2 41844 97.4071 311.0552 0013537 273.6946 171.1591 15.23653894109847
Pegasus-1
1 41846U 16066F 18305.66926516 .00000160 00000-0 35106-4 0 9996
2 41846 98.7424 336.8758 0367773 198.6746 160.0646 14.37429123103657
CAS-2T
1 41847U 16066G 18305.19429150 .00000040 00000-0 16795-4 0 9997
2 41847 98.7379 336.8854 0365883 197.2314 161.6180 14.37932472104017
TO-89
1 41932U 98067KU 18305.57226620 .00081257 13587-4 26491-3 0 9992
2 41932 51.6284 346.8854 0006434 23.6267 336.5033 15.90739422102512
AOBA-V3LOX3
1 41935U 98067KX 18305.47522705 .06673673 12387-4 58971-3 0 9997
2 41935 51.6243 332.8723 0002264 27.6675 118.1989 16.38373561102788
EO-88
1 42017U 17008BX 18304.87201906 .00001146 00000-0 49021-4 0 9991
2 42017 097.4337 009.0376 0004756 254.7711 105.3001 15.24845544094895
HAVELSAT
1 42700U 98067LH 18305.60267216 .00047276 00000-0 23444-3 0 9996
2 42700 51.6296 7.5181 0004955 34.7918 325.3408 15.81487923 83689
SOMP2
1 42701U 98067LJ 18305.77414235 .00043280 00000-0 23632-3 0 9990
2 42701 51.6349 9.4782 0004779 26.8196 333.3052 15.79421547 83660
PHOENIX
1 42706U 98067LP 18305.79199290 .00026644 00000-0 17222-3 0 9991
2 42706 51.6321 11.8759 0002922 359.5446 0.5550 15.75885585 83554
X-CubeSat
1 42707U 98067LQ 18305.61936776 .00058420 00000-0 26266-3 0 9996
2 42707 51.6304 6.0309 0004651 9.8224 350.2869 15.83500166 83605
qbee
1 42708U 98067LR 18305.62019948 .00049026 00000-0 24724-3 0 9990
2 42708 51.6307 8.4024 0003527 12.3216 347.7871 15.81114958 83534
ZA-AeroSat
1 42713U 98067LU 18305.62930465 .00028022 00000-0 19331-3 0 9993
2 42713 51.6347 16.7884 0003494 352.8614 7.2334 15.74348727 83130
